Regional Weather Roundup
Issued by NWS Kansas City/Pleasant Hill, MO

Home | Current Version | Previous Version | Text Only | Print | Product List | Glossary On
Versions: 1 2 3 4 5 6 7 8 9 10 11 12 13 14 15 16 17 18 19 20 21 22 23 24 25 26 27 28 29 30 31 32 33 34 35 36 37 38 39 40 41 42 43 44 45 46 47 48 49 50
000
ASUS43 KEAX 300904
RWREAX

WEATHER ROUNDUP FOR EASTERN KANSAS AND NORTHWEST MISSOURI
NATIONAL WEATHER SERVICE KANSAS CITY/PLEASANT HILL MO
300 AM CST FRI JAN 30 2015

KSZ040-057-103>105-MOZ028-029-037-043-301000-
...KANSAS CITY METROPOLITAN AREA...

CITY           SKY/WX    TMP DP  RH WIND       PRES   REMARKS
K.C. INTL      CLEAR     24  20  84 NW7       30.53R WCI  16
K.C. DOWNTOWN  CLEAR     27  22  81 N5        30.54S WCI  22
LEES SUMMIT    CLEAR     27  22  81 NW3       30.53S
OLATHE - IXD   CLEAR     23  20  88 NW6       30.54S WCI  16
OLATHE - OJC   CLEAR     25  21  85 NW6       30.52S WCI  18
LAWRENCE       CLEAR     16  13  88 NW6       30.56R WCI   7

$$

MOZ001>008-011>017-020>025-030>033-038>040-044>046-053-054-301000-
...NORTHERN AND CENTRAL MISSOURI...

CITY           SKY/WX    TMP DP  RH WIND       PRES   REMARKS
ST. JOSEPH     CLEAR     19  16  88 N3        30.56R
MOSBY            N/A     21  21 100 CALM      30.55R
WARRENSBURG    CLEAR     27  23  86 NW3       30.54S
WHITEMAN AFB   CLEAR     25  21  84 NW6       30.52R WCI  18
CLINTON        CLEAR     25  23  93 NW3       30.54S
SEDALIA        CLEAR     27  22  81 NW7       30.52S WCI  19
WARSAW         NOT AVBL
MARSHALL       CLEAR     30  25  80 NW5       30.53R WCI  25
CHILLICOTHE      N/A     27  20  75 N3        30.54R
MOBERLY        CLEAR     27  19  74 NW7       30.51R WCI  19
KIRKSVILLE     CLEAR     23  20  88 N7        30.51R WCI  15

$$

MOZ041-047>049-056>058-063>065-088>090-097-301000-
...EASTERN AND SOUTHERN MISSOURI...

CITY           SKY/WX    TMP DP  RH WIND       PRES   REMARKS
ST. LOUIS INTL MOCLDY    31  20  63 NW16      30.48R WCI  20
SPIRIT OF STL  CLEAR     29  21  72 NW9       30.48S WCI  20
COLUMBIA       CLEAR     25  20  81 NW7       30.49S WCI  17
JEFFERSON CITY CLEAR     29  21  72 NW3       30.52R
MEXICO         CLEAR     28  25  86 N5        30.48F WCI  23
HANNIBAL       MOCLDY    28  18  64 N9        30.49S WCI  20
ROLLA          CLEAR     27  21  78 NW8       30.45S WCI  19
LEBANON        CLEAR     28  23  80 CALM      30.48S
OSAGE BEACH    CLEAR     28  19  69 CALM      30.50S
SPRINGFIELD    CLEAR     26  22  84 NW7       30.49R WCI  18
NEVADA         CLEAR     25  23  93 NW5       30.54F WCI  19
JOPLIN         CLEAR     25  23  92 N5        30.53S WCI  19
WEST PLAINS    CLEAR     30  23  75 NW6       30.46R WCI  24

$$

IAZ060-094-KSZ022-034>040-054-083-096-NEZ052-066-093-301000-
...KANSAS...SOUTHEAST NEBRASKA AND IOWA...

CITY           SKY/WX    TMP DP  RH WIND       PRES   REMARKS
TOPEKA         CLEAR     20  17  88 CALM      30.56S
MANHATTAN      PTCLDY    18  16  92 CALM      30.56S
EMPORIA        PTCLDY    22  20  92 NW3       30.53S
CHANUTE        CLEAR     25  22  88 N5        30.54S WCI  19
WICHITA        PTCLDY    24  20  84 CALM      30.52S
OMAHA          CLEAR     21  18  88 N3        30.55S
LINCOLN        PTCLDY    16  13  88 CALM      30.56S
FALLS CITY     PTCLDY    18  15  88 NW5       30.55S WCI  11
LAMONI         CLEAR     22  18  85 N10       30.51R WCI  11
DES MOINES     PTCLDY    21  14  74 NE6       30.54S WCI  13

$$



USA.gov is the U.S. government's official web portal to all federal, state and local government web resources and services.